WA4EMN Weather Reports


time (UTC)temp
F
wind
direction
speed
knots
gust
knots
rain 1hr
in
rain 24hr
in
rain mn
in
humidity
%
barometer
mb
20260503072504 67 302 1.7 6.1 0.00 0.79 0.08 96 1012.6
20260503071505 67 203 0.9 10.4 0.00 0.79 0.08 96 1012.3
20260503071005 67 30 4.3 7.0 0.00 0.79 0.08 96 1012.6
20260503070505 67 1 2.6 8.7 0.00 0.79 0.08 96 1012.7
20260503055004 70 20 3.5 7.0 0.04 0.78 0.07 97 1013.0
20260503054505 70 7 2.6 6.1 0.04 0.78 0.07 97 1012.8
20260503054005 70 352 1.7 5.2 0.04 0.78 0.07 96 1012.9
20260503053505 70 37 1.7 6.1 0.03 0.77 0.06 96 1012.8
20260503052005 70 30 1.7 7.0 0.03 0.76 0.05 96 1013.0
20260503051505 70 348 3.5 7.0 0.02 0.75 0.04 96 1013.1
20260503051005 70 341 2.6 6.1 0.02 0.75 0.04 96 1013.1
20260503050505 70 345 1.7 6.1 0.03 0.75 0.04 96 1012.9
20260503050005 70 333 1.7 5.2 0.04 0.75 0.04 96 1013.0
20260503045506 71 312 1.7 4.3 0.05 0.74 0.03 96 1012.9
20260503045005 71 308 0.9 1.7 0.05 0.74 0.03 96 1013.2
20260503044505 71 0 1.7 1.7 0.05 0.74 0.03 96 1012.9
20260503044005 71 256 0.0 0.0 0.05 0.74 0.03 96 1013.1
20260503043005 71 237 0.0 0.9 0.05 0.74 0.03 96 1012.9
20260503042505 71 236 0.0 1.7 0.05 0.74 0.03 95 1013.0
20260503042005 71 236 0.9 1.7 0.04 0.73 0.02 95 1012.9
20260503041005 71 250 0.9 4.3 0.04 0.73 0.02 95 1013.0
20260503040505 71 290 1.7 5.2 0.03 0.72 0.01 95 1013.0
20260503040005 71 326 1.7 5.2 0.02 0.71 0.00 95 1012.8
20260503035505 71 272 1.7 5.2 0.00 0.69 0.69 95 1013.2
20260503035005 71 240 0.9 4.3 0.00 0.69 0.69 95 1012.5
20260503034004 71 241 1.7 2.6 0.00 0.69 0.69 94 1012.4
20260503033505 71 216 1.7 2.6 0.00 0.69 0.69 94 1012.2
20260503032505 71 229 0.9 4.3 0.00 0.69 0.69 94 1011.7
20260503031005 71 225 0.9 1.7 0.00 0.69 0.69 95 1011.4
20260503030005 71 224 0.0 0.9 0.00 0.69 0.69 95 1011.5
20260503025505 71 201 0.0 0.9 0.00 0.69 0.69 95 1011.4
20260503025005 71 212 0.0 2.6 0.00 0.69 0.69 94 1011.6
20260503024504 71 206 0.0 2.6 0.00 0.69 0.69 94 1011.5
20260503024005 71 204 0.9 2.6 0.00 0.69 0.69 94 1011.6
20260503023505 71 229 0.9 2.6 0.00 0.69 0.69 94 1011.6
20260503023005 71 214 0.9 4.3 0.00 0.69 0.69 94 1011.8
20260503022505 71 211 1.7 5.2 0.00 0.69 0.69 94 1011.8
20260503021505 71 200 2.6 5.2 0.00 0.69 0.69 95 1011.7
20260503021005 71 213 1.7 5.2 0.00 0.69 0.69 95 1011.5
20260503020505 71 238 1.7 5.2 0.00 0.69 0.69 95 1011.5
20260503020004 71 202 1.7 2.6 0.00 0.69 0.69 95 1011.3
20260503015505 71 213 0.9 2.6 0.00 0.69 0.69 95 1011.4
20260503015005 71 223 1.7 2.6 0.00 0.69 0.69 96 1011.3
20260503014506 71 204 0.9 2.6 0.00 0.69 0.69 96 1011.2
20260503013504 71 221 0.0 2.6 0.00 0.69 0.69 96 1010.9
20260503013005 71 218 0.0 2.6 0.00 0.69 0.69 96 1010.7
20260503012505 71 213 0.9 2.6 0.00 0.69 0.69 96 1010.8
20260503012005 71 226 0.9 2.6 0.00 0.69 0.69 96 1010.8
20260503011005 71 209 0.0 4.3 0.00 0.69 0.69 96 1010.6
20260503010506 71 231 0.9 4.3 0.00 0.69 0.69 96 1010.5
20260503005506 71 229 1.7 5.2 0.00 0.69 0.69 96 1010.6
20260503005004 71 219 2.6 5.2 0.00 0.69 0.69 96 1010.7
20260503004505 71 222 2.6 4.3 0.00 0.69 0.69 96 1010.6
20260503004005 71 238 2.6 5.2 0.00 0.69 0.69 96 1010.7
20260503003504 71 223 1.7 5.2 0.01 0.69 0.69 96 1010.5
20260503003004 71 239 1.7 6.1 0.01 0.69 0.69 96 1010.3
20260503002505 71 209 2.6 6.1 0.01 0.69 0.69 96 1010.3
20260503002004 71 223 2.6 6.1 0.02 0.69 0.69 96 1010.3
20260503001505 71 228 2.6 6.1 0.02 0.69 0.69 96 1010.4
20260503001006 71 241 3.5 6.1 0.02 0.69 0.69 96 1010.2
20260503000504 71 237 0.9 4.3 0.02 0.69 0.69 96 1009.4
20260503000004 71 200 0.0 0.9 0.03 0.69 0.69 96 1008.6
20260502235505 71 192 0.9 1.7 0.03 0.69 0.69 96 1008.7
20260502235004 71 193 0.9 2.6 0.03 0.69 0.69 96 1009.1
20260502234504 71 288 0.9 4.3 0.03 0.69 0.69 96 1008.9
20260502234005 71 165 0.9 5.2 0.04 0.69 0.69 96 1008.7
20260502233004 71 241 2.6 6.1 0.03 0.68 0.68 96 1010.0
20260502232506 71 221 2.6 5.2 0.04 0.68 0.68 96 1009.7
20260502232004 71 192 0.9 5.2 0.03 0.67 0.67 97 1009.5
20260502231504 71 231 2.6 5.2 0.04 0.67 0.67 97 1009.8
20260502231005 71 182 0.9 2.6 0.05 0.67 0.67 97 1009.6
20260502230505 72 225 0.9 1.7 0.05 0.67 0.67 97 1009.3
20260502230005 71 222 0.9 1.7 0.05 0.66 0.66 97 1009.8
20260502225505 71 204 0.0 2.6 0.05 0.66 0.66 97 1009.1
20260502224505 71 169 0.9 2.6 0.05 0.66 0.66 97 1009.4
20260502224005 71 195 0.0 2.6 0.04 0.65 0.65 97 1009.5
20260502223505 72 204 0.9 2.6 0.05 0.65 0.65 96 1009.6
20260502223006 71 196 0.0 1.7 0.06 0.65 0.65 97 1009.3
20260502222505 71 216 0.9 2.6 0.07 0.64 0.64 96 1009.9
20260502222005 71 217 0.9 2.6 0.07 0.64 0.64 96 1010.2
20260502221505 71 221 0.9 2.6 0.07 0.63 0.63 96 1010.1
20260502221005 71 218 0.9 2.6 0.06 0.62 0.62 96 1010.2
20260502220505 71 197 0.9 2.6 0.06 0.62 0.62 96 1010.0
20260502220004 71 185 0.0 4.3 0.05 0.61 0.61 96 1009.7
20260502215505 71 200 0.9 4.3 0.05 0.61 0.61 96 1009.7
20260502214505 71 178 1.7 2.6 0.05 0.61 0.61 96 1009.4
20260502214006 71 189 0.9 1.7 0.05 0.61 0.61 96 1009.0
20260502213505 71 130 0.9 1.7 0.04 0.60 0.60 96 1008.9
20260502213005 71 206 0.0 0.0 0.03 0.59 0.59 96 1009.0
20260502212507 71 206 0.0 1.7 0.01 0.57 0.57 96 1009.0
20260502212005 71 223 0.0 1.7 0.01 0.57 0.57 96 1009.3
20260502211009 71 203 0.0 2.6 0.01 0.56 0.56 95 1009.5
20260502210505 71 196 0.9 2.6 0.12 0.56 0.56 95 1009.4
20260502210005 71 181 0.9 1.7 0.41 0.56 0.56 95 1009.6
20260502205505 72 218 0.0 0.0 0.53 0.56 0.56 96 1009.6
20260502205005 71 219 0.0 0.0 0.56 0.56 0.56 95 1009.7
20260502204505 71 219 0.0 1.7 0.56 0.56 0.56 95 1009.9
20260502204005 71 214 0.0 1.7 0.56 0.56 0.56 95 1009.5
20260502202005 71 237 0.0 7.8 0.56 0.56 0.56 94 1009.4
20260502201505 70 215 0.0 13.9 0.55 0.55 0.55 94 1009.4
20260502201004 70 249 4.3 13.9 0.55 0.55 0.55 93 1009.2
20260502200505 71 178 7.8 13.9 0.44 0.44 0.44 90 1010.2
20260502195506 80 305 7.0 12.2 0.03 0.03 0.03 75 1010.5
20260502194506 81 240 2.6 7.8 0.00 0.00 0.00 76 1009.3
20260502194005 81 234 4.3 7.8 0.00 0.00 0.00 76 1009.5
20260502193505 81 271 1.7 6.1 0.00 0.00 0.00 77 1009.5
20260502192505 82 294 2.6 7.0 0.00 0.00 0.00 76 1009.6
20260502192006 82 240 2.6 7.0 0.00 0.00 0.00 75 1009.9
20260502191505 82 281 2.6 6.1 0.00 0.00 0.00 75 1010.0
20260502190505 82 230 1.7 6.1 0.00 0.00 0.00 75 1009.7
20260502185006 83 238 2.6 10.4 0.00 0.00 0.00 74 1009.5
20260502184505 83 237 2.6 10.4 0.00 0.00 0.00 72 1009.9
20260502184005 83 259 2.6 7.8 0.00 0.00 0.00 71 1009.7
20260502183505 84 258 2.6 8.7 0.00 0.00 0.00 71 1009.9
20260502183006 84 232 2.6 8.7 0.00 0.00 0.00 70 1009.9
20260502182006 84 239 2.6 10.4 0.00 0.00 0.00 70 1009.8
20260502181506 84 248 3.5 12.2 0.00 0.00 0.00 68 1010.0
20260502181005 85 250 5.2 12.2 0.00 0.00 0.00 68 1009.9
20260502180505 85 245 4.3 12.2 0.00 0.00 0.00 68 1010.3
20260502170504 85 246 10.4 15.6 0.00 0.00 0.00 68 1010.2
20260502164007 87 267 6.1 14.8 0.00 0.00 0.00 66 1010.0
20260502163504 86 243 6.1 15.6 0.00 0.00 0.00 67 1010.2
20260502163005 86 248 5.2 15.6 0.00 0.00 0.00 67 1010.1
20260502162506 86 241 8.7 13.9 0.00 0.00 0.00 66 1010.3
20260502162005 86 235 7.8 17.4 0.00 0.00 0.00 64 1010.0
20260502161005 86 243 11.3 17.4 0.00 0.00 0.00 63 1010.3
20260502160506 87 230 6.1 17.4 0.00 0.00 0.00 63 1010.3
20260502152005 87 257 6.1 14.8 0.00 0.00 0.00 63 1010.2
20260502151505 87 240 7.8 14.8 0.00 0.00 0.00 62 1010.1
20260502151005 87 236 8.7 14.8 0.00 0.00 0.00 62 1010.1
20260502150504 87 260 7.0 14.8 0.00 0.00 0.00 62 1010.1
20260502130507 77 160 1.7 5.2 0.00 0.00 0.00 82 1009.0
20260502123505 72 171 1.7 5.2 0.00 0.00 0.00 92 1009.0
20260502122505 71 150 1.7 4.3 0.00 0.00 0.00 96 1009.2
20260502122005 71 176 1.7 4.3 0.00 0.00 0.00 97 1009.0
20260502121504 70 158 1.7 4.3 0.00 0.00 0.00 97 1008.9
20260502120505 69 157 1.7 2.6 0.00 0.00 0.00 97 1008.8
20260502115504 69 180 0.9 4.3 0.00 0.00 0.00 97 1009.1
20260502115005 69 180 1.7 5.2 0.00 0.00 0.00 97 1009.1
20260502113505 68 200 1.7 4.3 0.00 0.00 0.00 97 1009.1
20260502112507 68 172 0.9 4.3 0.00 0.00 0.00 97 1009.2
20260502112005 68 180 1.7 4.3 0.00 0.00 0.00 97 1009.0
20260502111505 68 156 1.7 2.6 0.00 0.00 0.00 97 1009.0
20260502111006 68 175 0.9 4.3 0.00 0.00 0.00 97 1008.7
20260502110505 67 158 0.9 4.3 0.00 0.00 0.00 97 1008.7
20260502105505 67 151 0.9 2.6 0.00 0.00 0.00 97 1008.7
20260502105005 67 174 1.7 2.6 0.00 0.00 0.00 97 1008.6
20260502104005 67 184 1.7 2.6 0.00 0.00 0.00 97 1008.5
20260502103505 67 189 0.9 1.7 0.00 0.00 0.00 97 1008.6
20260502103006 67 183 0.0 1.7 0.00 0.00 0.00 97 1008.6
20260502102505 68 199 0.9 1.7 0.00 0.00 0.00 97 1008.6
20260502102005 68 195 0.0 1.7 0.00 0.00 0.00 97 1008.5
20260502101505 68 200 0.0 1.7 0.00 0.00 0.00 97 1008.4
20260502100504 68 185 0.9 2.6 0.00 0.00 0.00 97 1008.4
20260502091505 68 181 0.0 0.9 0.00 0.00 0.00 97 1009.0
20260502090504 68 181 0.0 0.9 0.00 0.00 0.00 97 1009.0